Date,TemperatureHighF,TemperatureAvgF,TemperatureLowF,DewpointHighF,DewpointAvgF,DewpointLowF,HumidityHigh,HumidityAvg,HumidityLow,PressureMaxIn,PressureMinIn,WindSpeedMaxMPH,WindSpeedAvgMPH,GustSpeedMaxMPH,PrecipitationSumIn
2013-1-1,37.2,32.6,22.3,22.9,14.4,2.7,63,48,32,29.90,29.68,7,3,16,0.00
2013-1-2,28.4,20.3,7.9,12.0,2.3,-14.2,56,45,32,30.12,29.82,6,2,11,0.00
2013-1-3,24.3,13.1,1.6,-1.8,-9.8,-15.2,46,33,23,30.14,30.02,4,1,8,0.00
2013-1-4,38.1,32.7,21.2,21.4,18.6,12.3,68,56,47,29.95,29.78,9,3,14,0.00
2013-1-5,41.2,35.9,30.9,23.1,18.4,12.0,61,49,34,30.18,29.82,7,2,12,0.00
2013-1-6,42.3,36.9,31.6,27.1,24.4,21.7,69,60,53,30.04,29.93,4,1,8,0.00
2013-1-7,37.9,31.2,23.7,24.5,17.5,7.7,76,58,34,30.40,29.96,5,1,14,0.00
2013-1-8,44.4,34.2,23.5,26.4,21.1,14.2,75,59,45,30.36,30.25,8,2,12,0.00
2013-1-9,43.2,38.0,23.2,32.2,26.5,16.8,76,63,49,30.39,29.98,8,2,11,0.00
2013-1-10,46.4,40.9,32.0,27.2,22.4,18.5,58,48,37,30.54,30.01,7,2,15,0.00
2013-1-11,39.0,35.1,26.8,31.7,23.8,18.5,86,63,56,30.53,30.24,3,1,4,0.08
2013-1-12,41.2,40.1,36.0,39.3,38.1,32.8,94,93,88,30.20,30.12,2,0,2,0.00
2013-1-13,50.4,45.1,40.3,47.2,43.1,38.7,95,93,87,30.15,29.97,4,1,6,0.00
2013-1-14,60.6,51.4,43.7,50.1,41.5,24.2,93,72,44,30.20,29.84,7,2,11,0.00
2013-1-15,41.9,37.2,31.3,25.5,21.8,18.8,65,54,46,30.32,30.23,2,0,5,0.00
2013-1-16,32.9,31.5,28.6,28.9,26.1,20.9,87,81,64,30.25,29.82,0,0,0,0.00
2013-1-17,41.2,33.0,27.5,33.2,23.1,3.6,88,69,35,30.10,29.81,5,1,11,0.32
2013-1-18,27.5,20.6,14.7,23.4,-5.4,-11.4,89,30,23,30.44,30.05,5,2,13,0.00
2013-1-19,46.0,36.3,19.8,24.7,17.7,0.4,57,47,38,30.37,29.93,10,3,14,0.03
2013-1-20,52.7,40.0,27.5,29.2,16.4,4.1,52,38,25,29.92,29.52,11,4,21,0.00
2013-1-21,28.2,24.2,18.3,15.6,1.2,-5.2,75,38,24,30.09,29.91,6,2,14,0.00
2013-1-22,24.3,18.1,11.1,4.9,-4.6,-10.0,49,35,26,30.07,29.84,6,2,11,0.00
2013-1-23,14.7,9.3,4.3,-4.2,-15.2,-22.1,48,29,21,30.14,30.06,7,2,17,0.00
2013-1-24,18.9,9.4,-0.2,-13.2,-17.3,-24.0,33,25,21,30.22,30.05,7,2,15,0.00
2013-1-25,23.9,15.1,7.2,3.9,-13.6,-20.2,46,24,21,30.30,30.06,5,1,14,0.00
2013-1-26,23.9,16.4,10.0,2.4,-5.4,-14.3,62,38,21,30.23,30.00,8,1,14,0.00
2013-1-27,30.4,20.3,12.2,14.6,-5.6,-11.5,54,31,21,30.46,30.22,6,1,14,0.00
2013-1-28,29.8,23.2,17.2,19.1,5.5,-9.5,79,50,24,30.45,30.02,4,0,5,0.00
2013-1-29,34.3,29.3,24.3,28.6,22.8,18.4,87,77,68,30.19,30.03,2,0,4,0.08
2013-1-30,59.5,44.5,32.2,55.3,41.6,28.8,95,90,84,30.15,29.53,8,2,18,0.09
2013-1-31,59.2,39.5,29.3,52.7,23.2,12.4,83,53,35,29.58,28.94,11,5,21,0.34
2013-2-1,32.4,27.3,21.2,15.3,3.7,-3.2,58,37,26,30.07,29.58,9,3,14,0.00
2013-2-2,28.9,23.6,14.9,5.8,-1.5,-4.9,44,33,24,30.24,30.03,7,2,11,0.00
2013-2-3,26.6,23.9,18.7,17.7,14.9,5.7,77,68,42,30.05,29.73,2,0,4,0.00
2013-2-4,30.2,23.6,18.5,16.4,4.0,-4.8,77,45,24,29.92,29.71,12,2,20,0.00
2013-2-5,30.4,24.2,18.7,15.8,5.0,-3.1,68,44,31,30.03,29.92,4,1,7,0.00
2013-2-6,38.7,29.2,21.7,23.7,13.6,-2.9,78,55,25,30.29,29.91,7,1,10,0.01
2013-2-7,28.4,22.4,14.4,-1.9,-6.5,-10.9,43,26,21,30.53,30.30,4,1,8,0.00
2013-2-8,24.3,20.8,16.3,16.1,11.5,-3.0,82,69,29,30.49,29.68,8,2,11,0.00
2013-2-9,20.1,17.2,13.5,13.2,8.0,-2.3,77,67,48,30.19,29.61,9,4,20,0.00
2013-2-10,40.3,23.8,12.4,8.2,0.5,-5.5,54,37,21,30.38,30.19,6,1,12,0.00
2013-2-11,33.4,26.5,15.8,29.4,18.3,0.7,88,72,45,30.34,29.61,4,0,4,0.24
2013-2-12,44.8,37.3,32.2,31.3,27.3,23.5,89,68,49,29.87,29.59,8,2,16,0.09
2013-2-13,43.0,35.2,27.7,24.4,21.1,17.1,69,57,45,29.86,29.71,4,1,7,0.00
2013-2-14,45.3,35.7,28.2,21.8,19.6,15.4,64,52,34,29.98,29.70,4,1,8,0.00
2013-2-15,52.5,39.1,28.6,31.4,26.8,18.9,87,63,43,29.99,29.87,7,2,10,0.00
2013-2-16,39.6,34.4,29.8,29.6,26.6,23.2,85,74,53,29.95,29.82,4,0,8,0.03
2013-2-17,23.2,19.8,15.4,10.8,-0.9,-8.3,72,41,28,29.67,29.39,11,4,21,0.00
2013-2-18,32.4,21.7,13.6,-0.8,-5.3,-7.6,39,29,21,30.14,29.67,9,3,21,0.00
2013-2-19,46.6,34.9,20.8,39.3,18.0,-5.0,94,53,27,30.15,29.57,5,2,8,0.18
2013-2-20,39.4,32.0,25.7,37.5,17.2,7.2,94,56,34,29.76,29.52,9,3,15,0.00
2013-2-21,33.3,26.7,23.0,11.0,8.3,4.1,55,46,34,30.19,29.76,7,3,13,0.00
2013-2-22,39.9,32.0,23.7,21.7,15.8,10.3,63,52,36,30.35,30.20,5,2,9,0.00
2013-2-23,37.6,35.9,32.5,29.4,27.3,24.7,87,71,61,30.19,29.99,6,3,8,0.00
2013-2-25,41.4,36.2,32.2,31.6,29.7,26.4,85,77,65,30.24,30.09,2,0,3,0.34
2013-2-26,42.3,35.5,29.8,34.2,27.3,23.8,89,73,51,30.34,30.21,6,1,8,0.01
2013-2-27,41.3,39.8,36.3,32.5,31.8,31.5,86,52,38,30.07,29.97,4,2,5,0.05
2013-3-27,51.6,50.7,49.6,21.0,19.9,18.8,32,29,28,29.72,29.70,4,2,7,0.00
2013-3-30,51.1,50.1,48.7,26.7,25.2,23.0,42,38,33,29.99,29.98,5,2,7,0.00
2013-3-31,37.2,35.0,32.5,24.1,23.5,22.5,66,63,58,30.04,30.03,0,0,1,0.00
2013-4-2,40.8,39.3,38.1,11.5,9.7,8.1,31,29,27,29.75,29.74,8,5,15,0.00
2013-7-19,108.1,103.3,94.8,76.1,73.9,69.4,50,40,34,30.02,29.62,6,1,12,0.00
2013-7-21,86.9,78.4,68.7,68.6,65.5,60.9,88,66,48,29.92,29.86,3,0,7,0.00
2013-7-22,91.8,75.1,68.4,73.3,68.9,64.8,94,83,52,29.94,29.87,2,0,4,0.00
2013-8-9,87.8,73.3,71.8,74.0,72.4,54.2,99,97,32,30.03,29.66,2,0,4,0.79
2013-8-10,96.4,94.1,89.2,70.1,65.3,58.3,49,39,34,29.81,29.79,2,0,4,0.00
2013-8-11,81.9,77.7,71.8,61.1,57.6,55.3,68,51,43,29.96,29.92,0,0,1,0.00
2013-8-12,77.9,74.7,71.1,62.7,61.7,59.7,74,64,54,29.92,29.85,0,0,1,0.00
2013-8-13,71.2,69.9,68.7,68.8,67.5,64.7,96,92,84,29.77,29.64,0,0,1,0.00
2013-8-15,69.4,64.7,61.0,56.3,55.2,54.2,80,71,63,30.03,29.98,0,0,0,0.00
2013-8-16,61.0,60.6,60.3,54.8,54.5,54.2,82,80,79,30.03,30.03,0,0,0,0.00
2013-8-19,81.9,80.7,77.2,65.5,62.9,56.0,62,55,48,30.04,29.87,0,0,1,0.00
2013-8-20,82.6,81.8,81.5,65.4,64.6,63.2,58,56,54,29.99,29.97,0,0,1,0.00
2013-8-21,82.6,82.4,82.0,67.2,66.4,66.1,61,59,58,30.04,30.03,0,0,0,0.00
2013-8-28,85.0,83.2,77.0,73.0,67.8,66.0,88,61,56,30.04,30.01,5,3,5,0.00
2013-8-29,91.0,84.4,72.0,73.0,68.9,68.0,88,61,45,30.08,29.98,5,2,2,0.00
2013-10-9,60.8,57.1,48.4,46.5,45.3,44.1,87,66,55,30.34,30.19,4,1,5,0.00
2013-10-10,60.6,56.2,50.7,52.4,51.1,48.9,96,84,72,30.23,30.11,2,0,3,0.00
2013-10-11,69.1,52.5,48.9,51.0,49.8,38.8,97,90,33,30.18,30.07,5,2,7,0.00
2013-10-12,56.5,54.3,51.3,54.7,52.7,49.7,97,94,92,30.41,30.33,4,1,8,0.00
2013-10-13,77.7,50.8,42.3,63.2,46.7,41.0,99,87,61,30.46,30.21,4,1,5,0.00
2013-10-14,65.7,50.1,37.0,51.5,43.2,35.7,99,80,43,30.42,30.24,3,0,4,0.00
2013-10-15,63.0,56.3,52.2,54.2,51.4,47.5,96,84,67,30.27,30.18,4,0,4,0.00
2013-10-16,60.8,54.9,50.9,56.4,52.2,50.3,99,91,74,30.20,29.91,3,0,4,0.00
2013-10-17,74.7,60.4,50.5,61.7,54.3,50.0,99,83,49,29.92,29.72,4,0,6,0.00
2013-10-18,66.6,60.8,51.3,60.8,52.1,42.4,99,75,47,29.90,29.61,6,1,12,0.00
2013-10-19,66.6,58.6,41.5,46.6,44.8,38.5,89,62,42,29.98,29.87,3,1,6,0.00
2013-10-20,61.3,54.0,43.0,42.3,37.0,33.0,75,54,36,30.02,29.81,8,2,14,0.00
2013-10-21,67.6,51.6,37.6,44.1,40.0,35.2,94,68,38,30.12,29.99,4,1,8,0.00
2013-10-22,64.2,53.0,43.0,52.8,46.3,40.5,96,79,60,29.99,29.70,4,1,7,0.00
2013-10-23,51.6,48.6,45.1,37.6,36.2,34.2,72,63,52,29.68,29.60,7,0,8,0.00
2013-10-24,52.7,45.0,34.7,36.4,31.0,24.8,85,60,35,29.89,29.64,7,1,14,0.00
2013-10-25,50.5,41.8,33.6,35.9,29.9,24.4,89,64,39,30.15,29.88,8,1,13,0.00
2013-10-26,54.9,42.6,29.7,36.5,28.9,22.1,87,62,28,30.16,29.87,7,1,13,0.00
2013-10-27,53.6,47.8,40.5,39.4,34.6,29.8,83,61,40,30.06,29.80,7,1,11,0.00
2013-10-28,57.6,44.2,33.3,36.4,30.8,21.6,85,61,38,30.36,30.06,5,1,11,0.00
2013-10-29,48.0,36.9,28.2,27.1,21.2,14.1,74,55,27,30.47,30.35,4,1,8,0.00
2013-10-30,50.2,38.0,30.4,40.1,31.6,22.1,92,78,67,30.37,30.20,2,0,4,0.00
2013-10-31,60.3,45.3,30.7,59.1,43.4,29.0,99,93,87,30.25,29.79,4,1,9,0.00
2013-11-1,69.8,64.5,57.7,63.6,58.1,53.1,95,80,63,29.79,29.43,11,3,17,0.00
2013-11-2,66.2,59.1,48.9,48.1,44.8,41.0,88,61,43,29.74,29.59,7,1,12,0.00
2013-11-3,50.2,42.6,37.9,46.5,36.4,27.4,88,79,58,30.14,29.73,6,2,11,0.00
2013-11-4,39.4,39.4,39.4,14.7,14.7,14.7,36,36,36,30.62,30.62,2,2,4,0.00
2013-11-5,48.7,48.7,48.7,29.4,29.4,29.4,47,47,47,30.57,30.57,2,2,4,0.00
2013-11-7,63.9,63.9,63.9,55.8,55.8,55.8,75,75,75,29.71,29.71,2,2,4,0.00